Flag for Canada Weather past 2 weeks in Miramichi, New Brunswick, Canada

Now
34 °F

Overcast.


Feels Like: 34 °F
Forecast: 31 / 44 °F
Wind: 2 mph from Southeast

Location: Bathurst Airport


UV Index: 0 (Low)

Visibility: 15 mi


Pressure: 30.25 "Hg

Humidity: 60%

Dew point: 21 °F

Location of MiramichiLocation

Historic Weather in Miramichi

°F

Miramichi temperature yesterday

Maximum temperature yesterday: 37 °F (at 4:00 PM)
Minimum temperature yesterday: 19 °F (at 2:00 AM)
Average temperature yesterday: 29 °F

Past Weeks' High & Low Weather Summary

 TemperatureHumidityPressure
High57 °F (Apr 15, 3:00 PM)100% (Apr 4, 2:00 AM)30.81 "Hg (Apr 4, 2:00 AM)
Low19 °F (Apr 4, 7:00 AM)23% (Apr 18, 3:00 PM)29.14 "Hg (Apr 9, 4:00 AM)
Average36 °F67%29.97 "Hg
* Reported Apr 3 10:00 PM — Apr 18 10:00 PM, Miramichi, Weather by CustomWeather, © 2014

Note: Actual official high and low records may vary slightly from our data, if they occured in-between our weather recording intervals... More about our weather records

Advertising

Historic Weather Conditions — Data for Previous 24 hours

 ConditionsComfort  
Time TempWeatherWind HumidityBarometerVisibility
10:00 PM
Apr 18
34 °FOvercast.6 mph60%30.28 "Hg15 mi
9:00 PM36 °FMostly cloudy.3 mph52%30.30 "Hg15 mi
8:00 PM37 °FMostly cloudy.9 mph45%30.32 "Hg15 mi
7:00 PM41 °FOvercast.9 mph36%30.32 "Hg15 mi
6:00 PM43 °FOvercast.13 mph34%30.34 "Hg15 mi
5:00 PM46 °FOvercast.6 mph23%30.37 "Hg15 mi
4:00 PM46 °FOvercast.10 mph23%30.42 "Hg15 mi
3:00 PM45 °FOvercast.12 mph23%30.46 "Hg15 mi
2:00 PM43 °FOvercast.9 mph29%30.50 "Hg15 mi
1:00 PM43 °FOvercast.12 mph26%30.52 "Hg15 mi
12:00 PM41 °FOvercast.8 mph31%30.55 "Hg15 mi
11:00 AM39 °FOvercast.12 mph30%30.60 "Hg15 mi
10:00 AM36 °FOvercast.6 mph41%30.63 "Hg15 mi
9:00 AM30 °FOvercast.6 mph55%30.67 "Hg15 mi
8:00 AM25 °FOvercast.3 mph69%30.69 "Hg15 mi
7:00 AM21 °FPartly cloudy.5 mph74%30.69 "Hg15 mi
6:00 AM23 °FPassing clouds.5 mph68%30.68 "Hg15 mi
5:00 AM25 °FPassing clouds.3 mph59%30.68 "Hg15 mi
4:00 AM25 °FPassing clouds.5 mph63%30.69 "Hg15 mi
3:00 AM27 °FPassing clouds.3 mph54%30.70 "Hg15 mi
2:00 AM28 °FPassing clouds.5 mph51%30.71 "Hg15 mi
1:00 AM30 °FPassing clouds.6 mph47%30.73 "Hg15 mi
12:00 AM30 °FPassing clouds.6 mph51%30.74 "Hg15 mi
11:00 PM
Apr 17
28 °FClear.No wind64%30.75 "Hg15 mi
Weather by CustomWeather, © 2014

See weather overview